sat.trackr.live / text

‹ back to catalog

SARI-2

NORAD 66669 · 2025-276D

PAYLOAD ACTIVE UNKNOWN

§ Identity

Operator
Country
SAUD
Launch date
2025-11-28
Launch site
AFWTR
Launch vehicle
Mass (kg)
RCS (m²)

External: N2YO · Heavens-Above · Gunter

§ Orbital elements

Epoch: 2026-09-20T22:14:52.336896Z

Period
93.99 min
Inclination
97.3984°
Eccentricity
0.0006025
Mean motion
15.32114243 rev/d
Perigee alt
465.4 km
Apogee alt
473.6 km
Semi-major
6,847.6 km
B*
6.5754e-4
RAAN
337.7661°
Arg perigee
42.9757°
Mean anomaly
317.1954°
Rev number
4,512

§ Raw data

SARI-21 66669U 25276D   26263.92699464  .00020352  00000+0  65754-3 0  99942 66669  97.3984 337.7661 0006025  42.9757 317.1954 15.32114243 45123

JSON: /api/v1/satellites/66669 · /tle

For live sub-satellite position, see the globe view (requires WebGL).

§ Visibility from observer

Set your observer location to see the next 7 days of passes ≥ 10°. The values pass through the URL so the page stays shareable.

No JS? Fill the form by hand. The geolocation button needs JavaScript.